Regional Weather Roundup
Issued by NWS Lake Charles, LA

Home | Current Version | Previous Version | Text Only | Print | Product List | Glossary On
Versions: 1 2 3 4 5 6 7 8 9 10 11 12 13 14 15 16 17 18 19 20 21 22 23 24 25 26 27 28 29 30 31 32 33 34 35 36 37 38 39 40 41 42 43 44 45 46 47 48 49 50
000
ASUS44 KLCH 011810
RWRLCH
RWRLCH
REGIONAL WEATHER ROUNDUP
NATIONAL WEATHER SERVICE LAKE CHARLES LA
100 PM CDT SAT AUG 01 2015

Note: "fair" indicates few or no clouds below 12,000 feet with no
significant weather and/or obstructions to visibility.


ACROSS SOUTHEAST TEXAS

CITY           SKY/WX    TMP DP  RH WIND       PRES   REMARKS
BEAUMONT       SUNNY     95  66  38 N9        29.95F
BEAUMONT CITY    N/A     92  64  39 NE8       29.97F
ORANGE         CLEAR     93  52  25 CALM      29.97F
JASPER         SUNNY     93  64  37 N6        30.02F
$$

ACROSS CENTRAL LOUISIANA

CITY           SKY/WX    TMP DP  RH WIND       PRES   REMARKS
LEESVILLE      SUNNY     91  65  42 NE10      29.98F
FULLERTON        N/A     93  63  36 VRB5      29.97F
ALEXANDRIA INT SUNNY     92  62  36 NE9       29.98F
ESLER FIELD    SUNNY     93  63  36 VRB7G18   30.00S
DERIDDER         N/A     90  63  40 CALM      30.01S
OAKDALE        CLEAR     92  64  39 NE7       29.97F
OPELOUSAS        N/A     90  64  42 NE10      29.96F
$$

ACROSS SOUTHWEST AND SOUTH CENTRAL LOUISIANA

CITY           SKY/WX    TMP DP  RH WIND       PRES   REMARKS
SULPHUR        CLEAR     93  61  33 NE9       29.96F
LAKE CHARLES   SUNNY     92  66  42 NE10      29.95F
CHENNAULT INT  SUNNY     91  64  40 E8        29.97F
CAMERON PHI    CLEAR     91  66  43 NE13      29.98F
DEQUINCY         N/A     91  65  41 NE7       29.97F
JENNINGS         N/A     91  64  41 NE13      29.95F
LAFAYETTE      SUNNY     93  62  35 N13       29.95F
NEW IBERIA     SUNNY     94  63  35 NE13G18   29.94F
ABBEVILLE        N/A     91  63  39 NE8       29.94F
PATTERSON      SUNNY     90  66  45 N9        29.94F
SALT POINT       N/A     92  63  38 MISG      29.91F
$$

SELECTED SITES ACROSS THE REGION

CITY           SKY/WX    TMP DP  RH WIND       PRES   REMARKS
HOUSTON BUSH   PTSUNNY   95  64  35 VRB7      29.98F
HOUSTON HOBBY  PTSUNNY   94  61  33 E6        29.96F
GALVESTON      SUNNY     92  72  51 E10       29.97F
COLLEGE STAT   SUNNY     94  63  35 N12       30.01F
CONROE         SUNNY     92  61  35 VRB5      30.00F
HUNTSVILLE     SUNNY     93  65  39 E6        30.01F
LUFKIN         SUNNY     91  65  41 E5        30.02F
SHREVEPORT     MOSUNNY   94  60  32 E12       30.02F
MONROE         SUNNY     92  64  39 E10       30.02F
NATCHEZ MS     SUNNY     90  63  40 NE15      29.99F
BATON ROUGE    SUNNY     90  65  43 NE8       29.94F
N.O. INTL ARPT MOSUNNY   88  69  53 NE10      29.93F
SLIDELL        SUNNY     91  68  46 E10       29.92F
$$

MARINE REPORTS

STATION/POSITION TIME  TEMP    WIND        PRES    VSBY  WAVE
                       AIR SEA DIR/SP/G                  HT/PER
                 (UTC) (F)     (DEG/KT/KT) (MB)    (MI)  (FT/S)
BUOY 30 S HIGH I 1750   85 86   70/ 14/ 16 1013.8F         3/ 5
SEA RIM ST PARK  1800   89     120/  7/  9 1015.0F
PORT ARTHUR      1700      88   90/  7/ 11 1015.1F
SABINE PASS N    1700   89 87   60/  7/ 15 1014.9F
TEXAS POINT      NOT AVBL
CALCASIEU PASS   1700   88 87   60/ 10/ 14 1013.8F
LK CHARLES BEACH 1700   90 88                N/A
MARSH ISLAND     1700   86      50/ 10/ 12   N/A           0
FRESH WATER LOCK 1700   87 87   50/ 10/ 13 1014.1F
AMERADA PASS     1700   87 86  350/  3/  7 1013.8F
$$



USA.gov is the U.S. government's official web portal to all federal, state and local government web resources and services.